Wind_Speed
11 11 11 10 10 11 11 10 10 11 11 11 11 11 11 10 10 10 10 10 10 10 10 11 12 13 13 14 14 15 16 16 17 17 17 18 19 20 20 21 22 22 23
12 12 12 12 12 11 11 11 11 12 12 11 12 12 12 11 11 11 11 11 12 12 12 12 13 14 15 15 16 17 17 18 19 19 20 20 21 22 22 23 24 24 25
13 13 12 12 12 12 12 12 12 12 13 13 13 13 13 13 13 13 13 13 13 13 14 14 14 15 16 17 18 18 19 20 20 21 22 22 23 24 24 25 25 26 27
13 13 12 12 12 12 12 13 13 14 14 14 14 15 15 15 15 14 14 14 14 15 15 16 16 16 17 18 19 20 20 21 22 23 24 25 26 26 27 27 27 28 29
13 13 12 13 13 13 13 14 15 15 15 15 15 16 16 15 15 14 14 15 15 16 17 17 17 18 19 19 20 21 22 23 24 25 26 27 27 28 29 29 30 30 31
13 13 13 13 14 14 14 15 16 16 16 15 16 15 15 15 15 15 15 16 17 18 18 19 19 19 21 22 23 24 24 25 26 27 28 29 30 30 31 31 32 32 33
14 13 14 14 15 15 15 15 15 16 16 15 15 14 14 15 15 16 17 18 18 19 20 20 21 21 22 24 24 25 26 27 28 29 30 31 32 33 33 34 34 35 35
14 14 14 15 15 15 15 15 15 15 15 14 14 14 15 15 16 17 17 18 19 20 21 22 23 23 24 25 26 27 28 29 30 31 32 33 34 35 36 36 37 38 38
15 14 15 15 16 16 16 16 16 16 16 15 15 16 16 17 18 18 19 20 21 21 22 23 24 25 27 28 29 30 30 32 32 34 35 36 36 37 38 39 40 41 41
15 15 16 16 16 17 17 17 17 16 16 17 17 18 18 18 18 19 20 21 22 23 24 25 26 27 29 30 31 32 32 34 35 36 37 37 38 39 40 42 43 44 44
16 16 16 17 17 17 18 18 18 18 18 18 19 19 20 20 19 20 21 22 23 25 26 27 28 29 31 32 33 34 35 36 37 38 38 39 40 42 43 45 45 46 46
16 16 17 17 17 17 18 19 19 19 19 19 20 20 20 20 20 21 22 23 25 26 27 29 30 31 33 34 35 36 37 37 38 39 40 41 43 44 45 45 46 47 48
17 17 17 17 17 17 18 19 20 20 20 20 21 21 21 21 22 23 24 25 26 28 29 31 32 33 34 36 37 37 38 39 40 41 42 44 45 46 46 46 46 47 48
18 18 17 17 17 17 19 19 19 20 20 20 21 21 21 22 23 24 26 27 29 30 32 33 34 35 36 37 38 39 40 41 42 43 44 46 47 47 47 47 47 48 48
18 18 18 18 18 18 19 20 20 21 21 21 22 22 23 24 26 27 29 30 31 32 34 35 36 37 38 39 40 41 42 43 43 44 46 47 47 47 47 48 48 49 49
19 19 19 19 19 19 20 20 21 22 22 22 24 25 26 27 28 30 31 32 33 34 35 36 37 38 39 40 41 42 43 44 45 46 47 48 48 48 49 49 49 50 50
20 20 20 20 21 21 22 22 22 22 23 24 26 27 28 29 30 31 32 33 34 36 37 37 39 40 41 41 42 43 45 46 47 47 48 49 49 49 49 50 50 50 50
21 21 21 21 22 23 23 23 23 24 25 26 28 29 30 30 31 32 34 35 36 37 39 40 41 42 42 43 44 45 46 47 48 48 49 49 49 49 49 49 49 49 49
22 22 22 23 23 24 24 24 25 25 26 27 29 30 31 32 33 34 36 37 38 39 40 42 43 43 44 45 46 46 47 47 48 48 49 49 50 50 49 49 49 49 49
23 24 24 24 24 24 25 26 26 27 28 29 30 32 33 34 35 36 38 39 40 41 42 43 43 44 45 46 46 46 47 47 48 49 49 49 50 50 49 48 48 48 48
24 25 25 24 25 26 26 27 28 29 30 31 32 33 35 36 37 38 39 41 42 42 43 44 45 45 46 47 46 46 47 48 49 49 49 49 49 49 48 47 47 48 47
25 25 25 26 26 26 27 28 29 31 31 32 33 34 35 37 38 39 40 41 42 43 44 45 45 46 46 47 47 48 48 49 49 49 49 49 48 48 47 47 47 47 47
26 26 26 27 28 28 29 30 31 32 32 33 34 35 36 38 39 40 41 42 43 44 45 45 45 45 46 47 48 48 49 49 49 49 49 48 48 47 47 46 46 47 47
26 27 27 28 29 29 30 31 32 33 34 35 36 37 38 38 39 40 42 43 44 44 44 45 45 46 47 47 48 48 48 49 49 49 48 47 47 46 46 46 46 47 47
28 28 29 29 30 30 32 33 33 34 35 36 37 38 38 40 41 42 43 43 43 43 44 45 46 47 47 47 47 48 48 49 48 47 47 47 46 45 45 45 45 46 46
30 30 30 31 31 32 33 34 35 36 36 37 38 39 40 41 41 42 43 43 43 44 45 46 46 46 46 47 47 47 48 48 47 46 46 45 45 44 44 44 45 46 45
Wind_Direction
256 254 252 254 257 261 260 264 266 268 271 277 279 279 282 285 286 289 292 294 296 298 302 305 307 309 311 312 314 316 317 317 316 317 317 316 315 313 312 310 307 305 303
256 256 254 255 260 259 258 264 268 271 271 276 280 279 280 282 283 286 289 291 294 297 299 301 303 305 306 308 309 311 313 312 312 313 313 313 313 312 311 309 307 305 303
256 257 255 257 258 258 257 263 270 274 273 273 276 278 279 279 280 283 286 289 292 296 298 299 301 303 305 306 308 309 310 310 310 310 310 311 311 310 309 307 306 305 303
255 254 256 257 257 259 263 266 270 274 276 275 275 276 277 277 279 280 284 288 292 295 298 299 300 302 305 306 308 308 308 308 309 309 309 309 308 308 307 306 305 304 303
253 255 256 256 258 261 265 268 270 274 276 277 277 278 278 277 277 279 284 288 291 295 297 299 301 302 304 306 307 308 308 307 308 308 308 308 307 306 305 304 304 303 302
255 257 256 258 260 263 267 271 272 274 276 277 279 279 277 276 278 280 285 289 292 294 297 298 299 302 304 305 306 307 307 307 307 307 306 306 305 304 304 304 303 303 302
256 258 258 260 264 265 270 273 275 276 280 282 280 277 277 278 278 281 285 289 293 295 297 298 299 301 304 305 306 307 308 307 307 307 307 306 305 304 304 304 304 303 302
258 258 260 263 265 268 270 273 277 281 283 284 282 279 278 279 281 284 287 291 294 296 297 298 300 302 304 305 306 306 307 307 307 307 307 307 306 305 305 304 304 303 302
259 259 262 264 266 269 272 273 277 281 283 282 281 280 280 282 283 286 290 292 295 297 298 299 300 303 304 304 305 306 307 307 307 307 307 307 306 306 305 305 305 304 303
260 261 264 266 267 271 271 272 275 279 282 284 283 282 285 287 287 289 290 292 294 296 297 298 300 303 304 304 306 307 307 307 307 307 306 306 305 305 305 305 305 304 303
261 265 268 270 271 270 271 271 273 277 281 283 284 285 286 287 290 291 292 294 296 297 299 300 302 303 305 305 306 307 307 306 306 306 306 306 306 306 306 305 305 305 304
264 267 269 269 270 271 272 273 275 278 281 284 286 287 287 288 291 293 295 297 299 299 300 301 302 304 305 306 307 307 307 307 306 306 306 307 307 307 306 306 305 305 304
265 268 268 268 269 271 273 277 279 280 282 284 285 287 288 290 292 294 295 298 300 301 301 301 302 304 305 306 306 307 307 307 307 307 307 308 308 308 307 307 306 305 305
264 265 269 273 270 270 274 277 279 281 283 285 287 288 289 291 292 294 296 298 300 301 302 303 304 305 305 306 306 307 307 307 307 308 308 308 308 308 308 307 307 306 306
265 266 268 271 270 271 273 276 279 282 284 286 287 289 290 291 292 294 296 298 300 302 304 304 305 305 306 306 306 307 307 307 308 308 309 309 309 308 308 308 307 307 307
265 267 270 272 271 272 274 278 282 283 285 287 289 290 291 293 294 296 298 299 301 302 304 305 305 305 305 306 306 307 307 308 308 309 309 310 310 309 309 309 308 308 307
267 267 269 271 272 273 275 278 280 281 285 288 289 291 292 294 296 298 299 300 301 303 304 305 306 306 306 306 307 307 308 308 308 309 310 310 311 310 310 310 309 308 308
268 268 268 270 273 275 277 278 279 282 285 288 290 292 293 294 296 298 299 301 302 303 304 304 305 305 306 306 306 307 308 309 309 309 310 311 311 311 311 310 310 309 309
268 271 271 272 274 276 277 278 280 282 285 288 290 292 294 296 297 299 300 301 302 303 304 305 305 305 306 306 307 307 308 309 310 310 311 311 311 311 311 311 310 310 310
270 272 274 275 275 276 278 279 281 283 285 289 291 292 294 296 297 299 300 301 301 302 304 304 305 305 307 307 308 308 310 311 311 310 311 311 311 311 312 311 311 311 311
272 273 275 276 278 278 279 281 283 285 287 290 292 294 295 296 298 299 300 301 302 302 303 304 305 305 306 308 309 309 310 310 310 310 310 311 311 312 312 311 311 311 312
271 273 276 277 279 280 281 282 285 286 288 290 293 295 296 297 299 300 301 302 304 305 305 306 306 306 307 308 308 309 309 310 311 311 311 311 311 311 311 311 311 311 311
274 275 276 278 279 280 282 284 285 287 290 292 294 294 295 297 298 300 301 303 304 305 307 307 307 307 307 308 308 309 310 311 312 312 311 311 311 310 310 310 311 311 312
275 276 277 279 280 281 283 285 286 288 290 292 294 295 295 296 298 300 302 303 304 305 306 307 307 308 308 308 309 310 310 311 312 312 312 311 311 310 310 310 311 312 312
277 278 279 280 281 283 285 286 288 290 291 293 294 295 296 298 300 301 303 304 304 304 305 306 307 308 308 309 309 310 311 312 312 312 312 311 311 311 311 311 312 312 313
277 278 279 281 282 284 286 288 289 290 292 293 295 296 297 299 300 301 302 303 304 305 305 306 307 308 309 309 310 311 312 313 313 313 313 312 311 312 312 312 313 313 314
Height
5863 5864 5864 5865 5866 5867 5868 5868 5869 5869 5870 5870 5870 5870 5870 5870 5870 5869 5869 5869 5868 5867 5867 5866 5865 5864 5863 5861 5860 5859 5857 5856 5854 5853 5851 5849 5847 5845 5843 5841 5839 5837 5835
5860 5861 5862 5863 5863 5864 5865 5866 5866 5866 5867 5867 5867 5867 5867 5867 5867 5867 5866 5866 5865 5865 5864 5863 5862 5861 5860 5859 5857 5855 5854 5852 5850 5848 5846 5844 5842 5840 5838 5836 5833 5831 5829
5857 5858 5858 5859 5861 5862 5862 5863 5863 5863 5863 5864 5864 5864 5863 5863 5863 5863 5863 5863 5862 5862 5861 5860 5859 5858 5856 5855 5853 5852 5850 5848 5846 5844 5842 5839 5837 5835 5832 5830 5827 5824 5822
5854 5854 5855 5856 5857 5858 5859 5859 5860 5860 5860 5860 5860 5860 5860 5860 5860 5859 5859 5859 5859 5858 5857 5856 5855 5854 5852 5851 5849 5847 5845 5843 5841 5838 5836 5834 5831 5828 5826 5823 5820 5817 5815
5850 5851 5852 5853 5854 5855 5855 5856 5856 5856 5856 5856 5855 5855 5855 5855 5855 5855 5856 5855 5855 5854 5853 5852 5851 5850 5848 5846 5844 5842 5840 5837 5835 5832 5830 5827 5824 5821 5818 5815 5812 5809 5806
5847 5848 5849 5850 5850 5851 5852 5852 5852 5852 5851 5851 5851 5850 5850 5851 5851 5851 5851 5851 5851 5850 5849 5848 5846 5845 5843 5841 5838 5836 5834 5831 5829 5826 5823 5820 5816 5813 5810 5806 5803 5800 5798
5843 5844 5845 5846 5847 5847 5848 5848 5848 5848 5847 5846 5846 5846 5846 5846 5847 5847 5847 5846 5846 5845 5844 5843 5841 5839 5837 5835 5833 5830 5827 5824 5821 5818 5815 5811 5808 5804 5800 5797 5793 5790 5786
5840 5841 5842 5842 5843 5843 5844 5844 5844 5844 5843 5842 5842 5842 5842 5842 5842 5842 5842 5841 5841 5840 5838 5837 5835 5833 5831 5829 5826 5823 5820 5816 5813 5810 5806 5802 5798 5794 5790 5786 5782 5779 5775
5836 5837 5838 5838 5839 5839 5840 5840 5840 5840 5839 5839 5838 5838 5838 5838 5837 5837 5837 5836 5835 5834 5832 5831 5829 5827 5824 5822 5819 5816 5812 5808 5804 5800 5796 5792 5788 5784 5779 5775 5771 5767 5764
5832 5833 5834 5834 5835 5835 5835 5835 5835 5835 5835 5835 5834 5834 5834 5833 5832 5832 5831 5830 5829 5828 5826 5824 5822 5819 5816 5813 5811 5807 5804 5800 5796 5792 5787 5783 5778 5773 5769 5764 5759 5755 5750
5828 5828 5829 5830 5830 5830 5830 5831 5831 5830 5830 5830 5830 5829 5829 5828 5827 5826 5825 5824 5822 5821 5819 5817 5814 5811 5808 5805 5802 5798 5794 5790 5786 5782 5777 5773 5768 5763 5757 5752 5747 5742 5737
5824 5824 5824 5825 5825 5825 5826 5826 5826 5826 5825 5825 5824 5824 5823 5822 5821 5820 5819 5817 5816 5814 5812 5809 5806 5803 5800 5796 5792 5788 5784 5780 5776 5771 5766 5762 5757 5751 5745 5740 5734 5729 5723
5819 5819 5820 5820 5820 5821 5821 5821 5821 5821 5820 5820 5819 5819 5818 5817 5815 5814 5813 5811 5809 5807 5804 5801 5798 5794 5791 5787 5783 5778 5774 5770 5765 5760 5755 5750 5744 5738 5732 5727 5721 5716 5710
5814 5814 5815 5815 5815 5816 5816 5816 5816 5816 5815 5814 5814 5813 5812 5811 5809 5808 5806 5804 5801 5799 5796 5792 5789 5785 5781 5777 5773 5768 5763 5759 5754 5749 5743 5737 5731 5725 5719 5714 5708 5703 5697
5809 5809 5810 5810 5810 5811 5811 5811 5810 5810 5809 5809 5808 5807 5806 5804 5803 5801 5798 5796 5793 5790 5787 5783 5780 5776 5772 5767 5762 5758 5753 5747 5742 5737 5731 5725 5719 5713 5707 5701 5695 5689 5683
5803 5804 5804 5805 5805 5805 5805 5805 5804 5804 5803 5802 5801 5800 5799 5797 5795 5793 5790 5788 5785 5781 5778 5774 5770 5766 5761 5757 5752 5747 5741 5736 5730 5724 5718 5712 5706 5700 5694 5688 5681 5675 5669
5798 5798 5798 5799 5799 5799 5799 5799 5798 5798 5797 5796 5794 5793 5791 5789 5787 5784 5782 5779 5775 5772 5768 5764 5760 5755 5750 5745 5740 5735 5730 5724 5718 5712 5706 5700 5693 5687 5680 5674 5668 5661 5655
5792 5792 5792 5792 5792 5792 5792 5792 5791 5791 5790 5789 5787 5785 5783 5781 5778 5776 5773 5769 5766 5762 5758 5754 5749 5744 5739 5734 5729 5723 5718 5712 5706 5700 5693 5687 5680 5674 5667 5661 5654 5648 5641
5785 5785 5786 5786 5785 5785 5785 5784 5784 5783 5782 5781 5779 5777 5775 5772 5770 5766 5763 5760 5756 5752 5747 5743 5738 5732 5727 5722 5717 5711 5705 5699 5693 5687 5681 5674 5668 5661 5654 5648 5641 5634 5628
5778 5778 5778 5778 5778 5778 5777 5777 5776 5775 5774 5773 5771 5768 5766 5763 5760 5757 5753 5750 5745 5741 5736 5732 5726 5721 5716 5710 5705 5699 5693 5687 5681 5675 5668 5662 5655 5648 5641 5635 5628 5622 5615
5771 5771 5771 5771 5771 5770 5769 5769 5768 5767 5765 5763 5761 5759 5756 5753 5750 5747 5743 5739 5734 5730 5725 5720 5715 5710 5704 5698 5693 5687 5681 5675 5669 5662 5655 5649 5642 5635 5629 5622 5616 5609 5603
5764 5764 5764 5763 5763 5762 5761 5760 5759 5758 5756 5754 5752 5749 5746 5743 5740 5736 5732 5728 5723 5718 5713 5708 5703 5698 5692 5686 5681 5675 5669 5663 5656 5650 5643 5636 5630 5623 5617 5610 5604 5597 5591
5756 5756 5756 5755 5755 5754 5753 5751 5750 5748 5746 5744 5742 5739 5736 5733 5729 5726 5721 5717 5712 5707 5702 5696 5691 5686 5680 5674 5668 5663 5656 5650 5644 5637 5630 5624 5617 5611 5605 5598 5592 5586 5579
5748 5748 5747 5747 5746 5745 5744 5742 5741 5739 5737 5734 5732 5729 5726 5722 5719 5715 5710 5705 5700 5695 5690 5685 5679 5674 5668 5662 5656 5650 5644 5637 5631 5625 5618 5611 5605 5599 5593 5587 5580 5574 5567
5740 5739 5739 5738 5737 5736 5735 5733 5731 5729 5727 5724 5721 5718 5715 5711 5707 5703 5699 5694 5689 5684 5678 5673 5667 5662 5656 5650 5644 5638 5632 5625 5619 5612 5606 5599 5593 5587 5581 5575 5569 5563 5556
5731 5730 5729 5728 5728 5726 5725 5723 5721 5719 5716 5714 5711 5707 5704 5700 5696 5691 5687 5682 5677 5672 5667 5661 5656 5650 5645 5639 5633 5626 5620 5614 5607 5600 5594 5588 5582 5576 5570 5564 5558 5552 5545